Skip Page Navigation
NASA JPL Caltech
NASA Logo - Jet Propulsion Laboratory + View the NASA Portal
+ Center for Near-Earth Object Studies
JPL Home Earth Solar System Stars & Galaxies Technology
JPL Solar System Dynamics
BODIES ORBITS EPHEMERIDES TOOLS PHYSICAL DATA DISCOVERY FAQ SITE MAP
JPL Small-Body Database Browser
Search: [ help ]  
3304 Pearce (1981 EQ21)
Classification: Main-belt Asteroid          SPK-ID: 2003304
Ephemeris | Orbit Diagram | Orbital Elements | Mission Design | Physical Parameters | Discovery Circumstances | Close-Approach Data ]

[ hide orbit diagram ]

For accurate long-term ephemerides, please instead use our Horizons system.This orbit viewer was implemented using two-body methods, and hence should not be used for determining accurate long-term trajectories (over several years or decades) or planetary encounter circumstances.


Orbital Elements at Epoch 2459200.5 (2020-Dec-17.0) TDB
Reference: JPL 21 (heliocentric ecliptic J2000)
 Element Value Uncertainty (1-sigma)   Units 
e .2798174703877311 4.1819e-08  
a 3.05494550688186 1.9754e-08 au
q 2.200118382973812 1.3196e-07 au
i 2.20332580644321 4.0023e-06 deg
node 320.3060341183074 0.00012274 deg
peri 58.27334720169215 0.00012293 deg
M 309.0888968687289 1.2392e-05 deg
tp 2459476.312303392127
(2021-Sep-18.81230339)
6.9432e-05 TDB
period 1950.309915012964
5.34
1.8917e-05
5.179e-08
d
yr
n .184586048211526 1.7904e-09 deg/d
Q 3.909772630789907 2.5282e-08 au
  Orbit Determination Parameters
   # obs. used (total)      1393  
   data-arc span      15850 days (43.39 yr)  
   first obs. used      1977-05-18  
   last obs. used      2020-10-09  
   planetary ephem.      DE441  
   SB-pert. ephem.      SB441-N16  
   condition code      0  
   norm. resid. RMS      .5345  
   source      ORB  
   producer      Otto Matic  
   solution date      2021-Apr-12 14:57:28  

Additional Information
 Earth MOID = 1.20188 au 
 Jupiter MOID = 1.5737 au 
 T_jup = 3.173 
[ show covariance matrix ]

Ephemeris | Orbit Diagram | Orbital Elements | Mission Design | Physical Parameters | Discovery Circumstances | Close-Approach Data ]

Physical Parameter Table
Parameter Symbol Value Units Sigma Reference Notes
absolute magnitude H 13.49   n/a E2021B10  
diameter diameter 9.314 km 0.186 urn:nasa:pds:neowise_diameters_albedos::2.0[mainbelt] (http://adsabs.harvard.edu/abs/2011ApJ...741...68M)  
rotation period rot_per 40.323 h n/a LCDB (Rev. 2020-October); Warner et al., 2009 Result based on less than full coverage, so that the period may be wrong by 30 percent or so.
Published Reference List:
[Waszczak, A.; Chang, C.-K.; Ofeck, E.O.; Laher, F.; et al. (2015) Astron. J. 150, A75.]
geometric albedo albedo 0.077   0.012 urn:nasa:pds:neowise_diameters_albedos::2.0[mainbelt] (http://adsabs.harvard.edu/abs/2011ApJ...741...68M)  

3304 Pearce (1981 EQ21)          Discovered 1981-Mar-02 by Bus, S. J. at Siding Spring
Reference: DISCOVERY.DBLast Updated: 2003-08-29

[ show close-approach data ]
Alternate Designations
 1981 EQ21 = 1978 QA1 = 1984 WQ1 
Ephemeris | Orbit Diagram | Orbital Elements | Mission Design | Physical Parameters | Discovery Circumstances | Close-Approach Data ]
ABOUT SSD CREDITS/AWARDS PRIVACY/COPYRIGHT GLOSSARY LINKS
FirstGov 2021-Apr-19 19:48 UT
(server date/time)  
NASA Home Page
Site Manager:   Ryan S. Park
Webmaster  Alan B. Chamberlin